Weather History for KCKV - November, 2013

Change the Weather History Date:

Saturday, November 30, 2013

  Actual Average Record
Temperature  
Mean Temperature 42 °F -  
Max Temperature 58 °F - 73 °F (1970)
Min Temperature 26 °F - 11 °F (1976)
Degree Days  
Heating Degree Days 23    
Month to date heating degree days 605  
Since 1 July heating degree days 833  
Cooling Degree Days 0    
Month to date cooling degree days 0  
Moisture  
Dew Point 23 °F    
Average Humidity 53    
Maximum Humidity 84    
Minimum Humidity 22    
Precipitation  
Precipitation 0.00 in - 1.22 in (2004)
Month to date precipitation 3.13  
Sea Level Pressure  
Sea Level Pressure 30.35 in    
Wind  
Wind Speed 6 mph (South)    
Max Wind Speed 20 mph    
Max Gust Speed 26 mph    
Visibility 10 miles    
Events      
T = Trace of Precipitation, MM = Missing Value Source: NWS Daily Summary

Daily Weather History Graph

Daily Weather History Graph

Search for Another Location

Airport or City:

Trip Planner

Search our weather history database for the weather conditions in past years. The results will help you decide how hot, cold, wet, or windy it might be!

Date:

Astronomy

Nov. 30, 2013 Rise Set
Actual Time 6:42 AM CST 4:34 PM CST
Civil Twilight 6:14 AM CST 5:02 PM CST
Nautical Twilight 5:42 AM CST 5:34 PM CST
Astronomical Twilight 5:11 AM CST 6:05 PM CST
Moon 3:56 AM CST (11/30) 2:55 PM CST (11/30)
Length of Visible Light 10h 48m
Length of Day
9h 51m
Waning Crescent, 7% of the Moon is Illuminated
Nov 30
Waning Crescent
Dec 2
New
Dec 9
First Quarter
Dec 17
Full
Dec 25
Last Quarter

Hourly Weather History & Observations

Time (CST) Temp. Windchill Dew Point Humidity Pressure Visibility Wind Dir Wind Speed Gust Speed Precip Events Conditions
12:52 AM 28.0 °F - 23.0 °F 81% 30.45 in 10.0 mi Calm Calm - N/A   Clear
1:52 AM 28.0 °F - 23.0 °F 81% 30.44 in 10.0 mi Calm Calm - N/A   Clear
2:52 AM 27.0 °F 23.0 °F 23.0 °F 85% 30.43 in 10.0 mi ESE 3.5 mph - N/A   Clear
3:52 AM 28.0 °F - 23.0 °F 81% 30.43 in 10.0 mi Calm Calm - N/A   Clear
4:52 AM 27.0 °F 23.0 °F 23.0 °F 85% 30.44 in 10.0 mi SE 3.5 mph - N/A   Clear
5:52 AM 26.1 °F 21.9 °F 23.0 °F 88% 30.45 in 10.0 mi SE 3.5 mph - N/A   Clear
6:52 AM 26.1 °F 19.4 °F 23.0 °F 88% 30.46 in 10.0 mi SE 5.8 mph - N/A   Clear
7:52 AM 32.0 °F 28.7 °F 26.1 °F 79% 30.46 in 10.0 mi SE 3.5 mph - N/A   Clear
8:52 AM 39.0 °F 35.7 °F 28.9 °F 67% 30.45 in 10.0 mi South 4.6 mph - N/A   Clear
9:52 AM 45.0 °F 41.8 °F 28.9 °F 53% 30.44 in 10.0 mi South 5.8 mph - N/A   Clear
10:52 AM 52.0 °F - 28.0 °F 40% 30.40 in 10.0 mi South 16.1 mph - N/A   Clear
11:52 AM 54.0 °F - 25.0 °F 33% 30.37 in 10.0 mi SW 16.1 mph 23.0 mph N/A   Clear
12:52 PM 55.9 °F - 23.0 °F 28% 30.32 in 10.0 mi South 11.5 mph 16.1 mph N/A   Clear
1:52 PM 55.9 °F - 21.0 °F 26% 30.30 in 10.0 mi SW 10.4 mph - N/A   Clear
2:52 PM 57.0 °F - 21.9 °F 26% 30.27 in 10.0 mi SW 10.4 mph - N/A   Clear
3:52 PM 55.9 °F - 18.0 °F 23% 30.26 in 10.0 mi SSW 8.1 mph - N/A   Clear
4:52 PM 51.1 °F - 18.0 °F 27% 30.25 in 10.0 mi South 5.8 mph - N/A   Clear
5:52 PM 50.0 °F - 18.0 °F 28% 30.25 in 10.0 mi SSW 8.1 mph - N/A   Clear
6:52 PM 46.9 °F - 18.0 °F 32% 30.25 in 10.0 mi South 4.6 mph - N/A   Clear
7:52 PM 45.0 °F 41.8 °F 23.0 °F 42% 30.24 in 10.0 mi South 5.8 mph - N/A   Clear
8:52 PM 44.1 °F 42.5 °F 24.1 °F 45% 30.24 in 10.0 mi SSW 3.5 mph - N/A   Clear
9:52 PM 44.1 °F 42.5 °F 24.1 °F 45% 30.24 in 10.0 mi South 3.5 mph - N/A   Clear
10:52 PM 43.0 °F 39.5 °F 28.0 °F 56% 30.24 in 10.0 mi South 5.8 mph - N/A   Mostly Cloudy
11:52 PM 45.0 °F 40.6 °F 28.9 °F 53% 30.22 in 10.0 mi South 8.1 mph - N/A   Overcast